Regional Weather Roundup
Issued by NWS Wilmington, NC

Home | Current Version | Previous Version | Text Only | Print | Product List | Glossary On
Versions: 1 2 3 4 5 6 7 8 9 10 11 12 13 14 15 16 17 18 19 20 21 22 23 24 25 26 27 28 29 30 31 32 33 34 35 36 37 38 39 40 41 42 43 44 45 46 47 48 49 50
764
ASUS42 KILM 061213
RWRILM
RWRILM
REGIONAL HOURLY WEATHER ROUNDUP
NATIONAL WEATHER SERVICE WILMINGTON NC
800 AM EDT FRI MAY 06 2016

NOTE: "FAIR" INDICATES FEW OR NO CLOUDS BELOW 12,000 FEET WITH NO
SIGNIFICANT WEATHER AND/OR OBSTRUCTIONS TO VISIBILITY.

...............WFO WILMINGTON COUNTY WARNING AREA...............

......COASTAL NC AND SC COUNTIES......

CITY           SKY/WX    TMP DP  RH WIND       PRES   REMARKS
WILMINGTON     CLOUDY    51  47  86 W12       29.73R
N MYRTLE BEACH CLOUDY    51  48  89 W5        29.76R
MYRTLE BEACH   CLOUDY    52  43  71 NW8       29.79R

......INLAND NC AND SC COUNTIES.......

CITY           SKY/WX    TMP DP  RH WIND       PRES   REMARKS
LUMBERTON      PTSUNNY   53  48  83 W8        29.74R
ELIZABETHTOWN  LGT RAIN  51  49  92 W6        29.73R
WHITEVILLE     NOT AVBL
FLORENCE       CLOUDY    53  47  79 NW8       29.78R
DARLINGTON     CLOUDY    52  48  86 W7        29.77R
KINGSTREE      PTSUNNY   52  46  82 W6        29.78S
HARTSVILLE     PTSUNNY   48  45  87 W3        29.77R
BENNETTSVILLE  CLOUDY    54  50  87 W8        29.76R
CONWAY         PTSUNNY   52  46  82 W5        29.78R
GEORGETOWN     FAIR      50  45  81 W9        29.80R
MARION         CLOUDY    50  46  87 W5        29.77R

....................REST OF NORTH CAROLINA......................

.........EASTERN NC.........

CITY           SKY/WX    TMP DP  RH WIND       PRES   REMARKS
CAPE HATTERAS  PTSUNNY   58  51  78 SE5       29.67R
JACKSONVILLE   CLOUDY    51  50  96 W7        29.71R
MOREHEAD CITY  CLOUDY    51  48  89 MISG      29.70R
KENANSVILLE    CLOUDY    51  50  95 CALM      29.71R
NEW BERN       CLOUDY    52  49  89 W8        29.69R
ELIZABETH CITY CLOUDY    53  49  86 NW3       29.67R

.........CENTRAL NC.........

CITY           SKY/WX    TMP DP  RH WIND       PRES   REMARKS
RALEIGH DURHAM CLOUDY    51  49  92 W5        29.71R
ROCKY MOUNT    LGT RAIN  52  51  97 N7        29.69R
ROANOKE RAPIDS NOT AVBL
FAYETTEVILLE   CLOUDY    52  48  86 W9        29.72R
HOFFMAN        MOSUNNY   52  49  90 NW9       29.74R

.........WESTERN NC.........

CITY           SKY/WX    TMP DP  RH WIND       PRES   REMARKS
CHARLOTTE      MOSUNNY   52  47  83 NW6       29.78R
GREENSBORO     CLOUDY    53  50  89 NW10      29.72R
HICKORY        NOT AVBL
BOONE          NOT AVBL
ASHEVILLE      NOT AVBL

.....................REST OF SOUTH CAROLINA.....................

.........EASTERN SC.........

CITY           SKY/WX    TMP DP  RH WIND       PRES   REMARKS
CHARLESTON     PTSUNNY   52  45  77 W10       29.82R
BEAUFORT MCAS  PTSUNNY   51  46  83 W6        29.84R
HILTON HEAD    SUNNY     55  52  88 W6        29.85R

.........CENTRAL SC.........

CITY           SKY/WX    TMP DP  RH WIND       PRES   REMARKS
COLUMBIA       PTSUNNY   56  46  69 W8        29.80R
ORANGEBURG     CLOUDY    54  45  71 W9        29.82R
SUMTER SHAW    CLOUDY    54  46  73 W9        29.77R

.........WESTERN SC.........

CITY           SKY/WX    TMP DP  RH WIND       PRES   REMARKS
GREENVILLE     NOT AVBL
ROCK HILL      MOSUNNY   52  47  83 NW7       29.79R
ANDERSON       SUNNY     52  45  77 S3        29.83R
CLEMSON        NOT AVBL
GREENWOOD      SUNNY     50  42  74 W6        29.84R


...................COASTAL AND OFFSHORE REPORTS..................

................LOCAL PIERS AND NC RESERVE................


STATION/POSITION TIME  SKY/WX   TEMP    WIND        PRES    VSBY
                                AIR SEA DIR/SP/G
                 (UTC)          (F)     (DEG/KT/KT) (MB)    (MI)
JOHNY MRCER PIER 1100            50 69  270/  7/ 12 1004.9R
NC RESRV MASNBRO NOT AVBL
OCEAN CREST PIER NOT AVBL
SPRINGMAID  PIER 1100            49 69  260/  5/  9 1006.9R


................COASTAL AND OFFSHORE BUOYS................


STATION/POSITION TIME  SKY/WX   TEMP    WIND        PRES    VSBY
                                AIR SEA DIR/SP/G
                 (UTC)          (F)     (DEG/KT/KT) (MB)    (MI)
DIMNDSHOAL 41025 1150            59 76  350/  6/ 10 1004.7R
WVE H/P(F/S)=  5/ 8 SWL H/P/D(F/S/D)=  5/ 80/ 8

CAPE LOOKOUT     1200            56     240/ 11/ 13 1005.1R
ONSLOW BAY 41036 NOT AVBL
ONSLOW BAY 41064 NOT AVBL
ONSLOW BAY 41159 1125               72                N/A
WVE H/P(F/S)=  4/ 7

5SE WRITBC 41038 1108            52 69  290/ 16/ 21 1006.3R
MASNBO INL 41110 1106               69                N/A
WVE H/P(F/S)=  2/ 7

WILM HARBR 41108 1126               69                N/A
WVE H/P(F/S)=  4/ 7

27SE WRITB 41037 1108            56 72  280/ 14/ 17 1005.3R
FRYING PAN 41013 1200            58 72  270/ 17/ 21 1006.8R
SUNST NRSH 41024 1108            52 69  300/ 14/ 19 1006.1R
CAPRS NRSH 41029 1108            55 69  310/ 14/ 17 1007.9R
EDISTO     41004 1150            58 72  310/ 16/ 19 1008.5R
WVE H/P(F/S)=  4/ 5



..........OFFSHORE BUOYS BEYOND 100 NM OFFSHORE...........
.....IN A TRIANGLE---HAT TO BERMUDA TO BAHAMAS TO HAT.....


STATION/POSITION TIME  SKY/WX   TEMP    WIND        PRES    VSBY
                                AIR SEA DIR/SP/G
                 (UTC)          (F)     (DEG/KT/KT) (MB)    (MI)
150E HAT   41001 NOT AVBL
W BERMUDA  41048 1150            70 70  170/  8/ 10 1008.8R
WVE H/P(F/S)=  9/ 8 SWL H/P/D(F/S/D)=  8/170/ 8

ATLANTIC S 41049 1150            76 76  140/ 17/ 21 1016.6
WVE H/P(F/S)=  7/ 7 SWL H/P/D(F/S/D)=  3/ 60/11

E BAHAMAS  41046 1150            74 78  170/ 14/ 16 1012.5R
WVE H/P(F/S)=  7/ 7 SWL H/P/D(F/S/D)=  5/140/ 7

NE BAHAMAS 41047 NOT AVBL
120E CANVRL41010 1120            72 79  300/ 16/ 19 1008.6R

END




USA.gov is the U.S. government's official web portal to all federal, state and local government web resources and services.